QPF
0.02 0.01 0.01 0.01 0.00 0.00 0.00 0.00 0.00 0.00 0.01 0.01 0.02 0.03 0.06 0.04 0.03 0.03 0.04 0.03 0.02 0.01 0.01 0.01 0.02 0.02 0.02 0.02 0.02 0.02 0.03 0.02 0.03 0.04 0.04 0.06 0.08 0.08 0.06 0.05 0.03 0.03 0.03
0.01 0.01 0.00 0.00 0.00 0.00 0.00 0.00 0.00 0.00 0.00 0.01 0.02 0.04 0.05 0.04 0.03 0.02 0.04 0.04 0.03 0.02 0.02 0.02 0.02 0.02 0.02 0.02 0.03 0.03 0.03 0.03 0.03 0.03 0.04 0.05 0.08 0.07 0.05 0.05 0.05 0.04 0.04
0.02 0.01 0.00 0.00 0.00 0.00 0.00 0.00 0.00 0.00 0.00 0.00 0.01 0.04 0.05 0.03 0.02 0.02 0.02 0.02 0.02 0.01 0.01 0.02 0.02 0.02 0.02 0.03 0.03 0.04 0.04 0.03 0.03 0.03 0.04 0.05 0.05 0.05 0.05 0.05 0.06 0.06 0.05
0.02 0.02 0.01 0.00 0.00 0.00 0.00 0.00 0.00 0.00 0.00 0.01 0.01 0.04 0.04 0.03 0.02 0.02 0.02 0.01 0.01 0.01 0.01 0.02 0.02 0.02 0.02 0.02 0.02 0.03 0.04 0.04 0.04 0.04 0.05 0.05 0.04 0.04 0.05 0.05 0.05 0.05 0.05
0.02 0.01 0.01 0.00 0.00 0.00 0.00 0.00 0.00 0.00 0.00 0.01 0.01 0.03 0.03 0.02 0.02 0.02 0.02 0.02 0.01 0.01 0.01 0.01 0.02 0.02 0.03 0.03 0.03 0.03 0.03 0.04 0.04 0.04 0.05 0.05 0.04 0.04 0.05 0.07 0.04 0.04 0.05
0.02 0.01 0.01 0.01 0.00 0.00 0.00 0.00 0.00 0.00 0.00 0.00 0.01 0.02 0.02 0.02 0.01 0.02 0.02 0.02 0.02 0.02 0.01 0.01 0.02 0.02 0.02 0.02 0.03 0.04 0.03 0.04 0.04 0.04 0.04 0.05 0.05 0.05 0.07 0.07 0.04 0.03 0.05
0.03 0.02 0.01 0.01 0.01 0.01 0.00 0.00 0.00 0.00 0.00 0.00 0.01 0.02 0.01 0.02 0.01 0.01 0.01 0.02 0.02 0.01 0.01 0.01 0.01 0.01 0.02 0.02 0.03 0.03 0.04 0.04 0.05 0.05 0.04 0.04 0.03 0.04 0.05 0.05 0.05 0.04 0.05
0.02 0.02 0.02 0.01 0.01 0.01 0.01 0.01 0.00 0.00 0.00 0.00 0.01 0.02 0.01 0.02 0.02 0.01 0.01 0.01 0.01 0.01 0.01 0.01 0.01 0.01 0.02 0.02 0.02 0.02 0.02 0.02 0.03 0.04 0.04 0.03 0.03 0.03 0.03 0.04 0.04 0.04 0.03
0.01 0.01 0.01 0.01 0.01 0.01 0.01 0.01 0.01 0.01 0.00 0.00 0.01 0.02 0.02 0.02 0.02 0.01 0.01 0.01 0.01 0.01 0.02 0.02 0.01 0.01 0.01 0.02 0.02 0.01 0.01 0.01 0.01 0.02 0.03 0.03 0.03 0.02 0.02 0.02 0.02 0.02 0.02
0.01 0.01 0.01 0.01 0.01 0.01 0.01 0.01 0.01 0.01 0.01 0.01 0.01 0.02 0.02 0.03 0.03 0.01 0.01 0.01 0.01 0.01 0.01 0.02 0.02 0.02 0.02 0.02 0.02 0.01 0.01 0.01 0.01 0.02 0.03 0.03 0.02 0.01 0.01 0.01 0.01 0.01 0.01
0.00 0.01 0.01 0.01 0.01 0.01 0.01 0.01 0.01 0.01 0.01 0.02 0.02 0.02 0.02 0.03 0.03 0.02 0.01 0.01 0.02 0.02 0.02 0.02 0.03 0.03 0.02 0.02 0.02 0.01 0.02 0.02 0.02 0.02 0.02 0.03 0.03 0.01 0.01 0.01 0.01 0.01 0.01
0.00 0.00 0.00 0.00 0.01 0.01 0.01 0.01 0.01 0.01 0.02 0.02 0.02 0.02 0.02 0.03 0.02 0.02 0.02 0.02 0.02 0.02 0.02 0.02 0.02 0.03 0.03 0.02 0.02 0.01 0.02 0.02 0.02 0.02 0.02 0.03 0.03 0.03 0.02 0.01 0.01 0.01 0.01
0.00 0.00 0.00 0.00 0.00 0.01 0.01 0.01 0.01 0.02 0.03 0.03 0.03 0.03 0.03 0.03 0.03 0.04 0.03 0.02 0.02 0.02 0.02 0.02 0.02 0.02 0.02 0.01 0.01 0.01 0.02 0.01 0.02 0.03 0.03 0.02 0.02 0.03 0.03 0.02 0.01 0.01 0.01
0.00 0.00 0.00 0.00 0.00 0.01 0.01 0.01 0.02 0.02 0.03 0.02 0.03 0.03 0.03 0.03 0.04 0.05 0.05 0.04 0.03 0.03 0.02 0.02 0.02 0.02 0.01 0.01 0.01 0.01 0.01 0.01 0.01 0.01 0.02 0.02 0.02 0.02 0.03 0.05 0.03 0.02 0.03
0.00 0.00 0.00 0.01 0.01 0.01 0.01 0.01 0.01 0.02 0.03 0.03 0.03 0.03 0.04 0.04 0.04 0.05 0.06 0.05 0.04 0.03 0.03 0.02 0.02 0.01 0.01 0.01 0.00 0.00 0.00 0.00 0.01 0.01 0.01 0.01 0.01 0.02 0.03 0.03 0.03 0.03 0.02
0.00 0.01 0.01 0.01 0.01 0.01 0.01 0.01 0.01 0.01 0.02 0.03 0.03 0.03 0.04 0.04 0.04 0.05 0.06 0.06 0.05 0.04 0.03 0.02 0.01 0.01 0.01 0.01 0.01 0.01 0.01 0.01 0.01 0.01 0.01 0.02 0.02 0.03 0.03 0.04 0.04 0.03 0.02
0.00 0.00 0.00 0.00 0.00 0.01 0.01 0.01 0.01 0.01 0.02 0.03 0.03 0.03 0.04 0.05 0.05 0.05 0.05 0.05 0.04 0.04 0.03 0.02 0.02 0.02 0.02 0.02 0.02 0.02 0.02 0.02 0.02 0.01 0.01 0.01 0.01 0.02 0.02 0.04 0.05 0.04 0.03
0.00 0.00 0.00 0.00 0.00 0.00 0.00 0.00 0.00 0.01 0.01 0.01 0.02 0.02 0.03 0.03 0.04 0.03 0.03 0.04 0.03 0.03 0.03 0.03 0.03 0.02 0.02 0.02 0.02 0.02 0.02 0.02 0.02 0.02 0.02 0.01 0.01 0.01 0.02 0.02 0.03 0.03 0.03
0.00 0.00 0.00 0.00 0.00 0.00 0.00 0.00 0.00 0.00 0.00 0.01 0.01 0.01 0.02 0.02 0.02 0.02 0.03 0.03 0.03 0.03 0.03 0.04 0.04 0.03 0.03 0.03 0.03 0.03 0.03 0.02 0.02 0.02 0.01 0.01 0.01 0.01 0.01 0.01 0.01 0.03 0.04
0.00 0.01 0.00 0.00 0.00 0.00 0.00 0.00 0.00 0.00 0.01 0.01 0.01 0.01 0.02 0.02 0.02 0.02 0.02 0.02 0.03 0.03 0.03 0.03 0.03 0.03 0.03 0.03 0.03 0.03 0.03 0.02 0.02 0.02 0.02 0.01 0.01 0.01 0.01 0.01 0.01 0.02 0.03
0.00 0.00 0.00 0.00 0.00 0.01 0.00 0.00 0.00 0.01 0.01 0.02 0.02 0.02 0.02 0.02 0.02 0.02 0.02 0.02 0.02 0.03 0.03 0.03 0.03 0.03 0.03 0.03 0.03 0.03 0.02 0.02 0.02 0.02 0.02 0.02 0.01 0.01 0.02 0.01 0.01 0.01 0.02
0.01 0.01 0.01 0.01 0.01 0.01 0.01 0.00 0.00 0.01 0.01 0.02 0.02 0.02 0.02 0.02 0.02 0.02 0.02 0.03 0.03 0.03 0.03 0.02 0.02 0.02 0.02 0.02 0.02 0.02 0.02 0.01 0.01 0.01 0.01 0.01 0.01 0.01 0.01 0.01 0.01 0.01 0.01
0.01 0.01 0.01 0.01 0.01 0.01 0.01 0.01 0.01 0.01 0.01 0.02 0.02 0.02 0.02 0.01 0.01 0.01 0.01 0.02 0.02 0.03 0.03 0.02 0.02 0.02 0.02 0.02 0.02 0.02 0.02 0.01 0.01 0.01 0.01 0.01 0.01 0.01 0.01 0.01 0.01 0.01 0.01
0.01 0.01 0.01 0.01 0.01 0.01 0.01 0.01 0.01 0.01 0.02 0.02 0.02 0.01 0.01 0.01 0.01 0.01 0.01 0.01 0.02 0.03 0.03 0.03 0.02 0.02 0.02 0.02 0.02 0.02 0.02 0.01 0.01 0.01 0.01 0.01 0.01 0.01 0.01 0.01 0.01 0.01 0.01
0.01 0.01 0.02 0.02 0.02 0.02 0.02 0.01 0.01 0.01 0.01 0.01 0.01 0.01 0.01 0.01 0.01 0.01 0.01 0.01 0.02 0.03 0.04 0.03 0.03 0.02 0.01 0.01 0.02 0.02 0.02 0.02 0.02 0.01 0.01 0.01 0.01 0.01 0.01 0.01 0.01 0.00 0.01
0.00 0.01 0.01 0.01 0.01 0.01 0.01 0.01 0.01 0.02 0.01 0.01 0.01 0.01 0.01 0.01 0.01 0.01 0.01 0.01 0.01 0.02 0.03 0.04 0.04 0.03 0.03 0.01 0.01 0.02 0.02 0.02 0.01 0.01 0.01 0.01 0.01 0.01 0.01 0.01 0.01 0.01 0.01
MSLP
1010.77 1011.21 1011.70 1012.19 1012.62 1012.98 1013.26 1013.46 1013.62 1013.76 1013.93 1014.13 1014.37 1014.64 1014.92 1015.19 1015.43 1015.63 1015.79 1015.91 1016.01 1016.10 1016.20 1016.30 1016.41 1016.54 1016.68 1016.81 1016.96 1017.10 1017.26 1017.43 1017.60 1017.77 1017.92 1018.02 1018.03 1017.93 1017.70 1017.31 1016.78 1016.10 1015.32
1010.69 1011.10 1011.55 1012.01 1012.42 1012.76 1013.03 1013.24 1013.40 1013.56 1013.72 1013.92 1014.15 1014.41 1014.68 1014.95 1015.18 1015.37 1015.52 1015.62 1015.69 1015.73 1015.76 1015.79 1015.82 1015.86 1015.92 1016.01 1016.13 1016.30 1016.51 1016.76 1017.04 1017.33 1017.60 1017.81 1017.92 1017.90 1017.72 1017.36 1016.83 1016.15 1015.34
1010.66 1011.05 1011.47 1011.89 1012.28 1012.60 1012.86 1013.07 1013.24 1013.41 1013.59 1013.79 1014.02 1014.27 1014.53 1014.78 1015.00 1015.17 1015.30 1015.38 1015.41 1015.40 1015.37 1015.32 1015.27 1015.22 1015.21 1015.24 1015.33 1015.49 1015.73 1016.04 1016.40 1016.79 1017.17 1017.49 1017.72 1017.79 1017.69 1017.40 1016.92 1016.27 1015.49
1010.66 1011.03 1011.42 1011.80 1012.16 1012.46 1012.72 1012.93 1013.12 1013.30 1013.49 1013.71 1013.94 1014.19 1014.44 1014.67 1014.87 1015.03 1015.13 1015.18 1015.17 1015.11 1015.01 1014.89 1014.76 1014.64 1014.55 1014.52 1014.56 1014.69 1014.92 1015.25 1015.66 1016.12 1016.58 1017.00 1017.32 1017.51 1017.52 1017.33 1016.95 1016.40 1015.70
1010.65 1011.00 1011.36 1011.71 1012.03 1012.31 1012.55 1012.77 1012.98 1013.19 1013.41 1013.65 1013.90 1014.15 1014.39 1014.61 1014.78 1014.91 1014.98 1015.00 1014.95 1014.85 1014.70 1014.52 1014.32 1014.12 1013.95 1013.84 1013.82 1013.89 1014.09 1014.40 1014.81 1015.29 1015.80 1016.29 1016.71 1017.00 1017.13 1017.08 1016.84 1016.43 1015.87
1010.63 1010.96 1011.28 1011.58 1011.86 1012.11 1012.35 1012.58 1012.81 1013.06 1013.31 1013.58 1013.86 1014.12 1014.36 1014.57 1014.72 1014.82 1014.87 1014.84 1014.76 1014.61 1014.42 1014.19 1013.93 1013.66 1013.42 1013.23 1013.12 1013.12 1013.24 1013.49 1013.86 1014.32 1014.84 1015.37 1015.86 1016.25 1016.51 1016.61 1016.55 1016.32 1015.94
1010.61 1010.90 1011.17 1011.42 1011.65 1011.88 1012.11 1012.35 1012.61 1012.89 1013.19 1013.50 1013.81 1014.09 1014.34 1014.54 1014.68 1014.76 1014.77 1014.71 1014.60 1014.42 1014.19 1013.91 1013.60 1013.28 1012.96 1012.69 1012.49 1012.39 1012.42 1012.58 1012.87 1013.28 1013.77 1014.30 1014.83 1015.31 1015.69 1015.94 1016.06 1016.02 1015.85
1010.61 1010.85 1011.06 1011.26 1011.44 1011.63 1011.85 1012.09 1012.38 1012.70 1013.05 1013.40 1013.75 1014.06 1014.32 1014.52 1014.65 1014.71 1014.70 1014.62 1014.47 1014.27 1014.01 1013.70 1013.35 1012.97 1012.60 1012.25 1011.96 1011.76 1011.67 1011.72 1011.91 1012.24 1012.67 1013.18 1013.72 1014.25 1014.72 1015.11 1015.39 1015.55 1015.58
1010.67 1010.86 1011.01 1011.14 1011.27 1011.42 1011.62 1011.87 1012.17 1012.53 1012.91 1013.31 1013.69 1014.04 1014.31 1014.52 1014.65 1014.69 1014.66 1014.56 1014.40 1014.17 1013.89 1013.55 1013.17 1012.76 1012.33 1011.92 1011.55 1011.25 1011.06 1011.00 1011.08 1011.31 1011.66 1012.11 1012.63 1013.17 1013.70 1014.19 1014.60 1014.91 1015.12
1010.82 1010.95 1011.04 1011.10 1011.18 1011.29 1011.47 1011.71 1012.03 1012.41 1012.83 1013.26 1013.67 1014.04 1014.33 1014.55 1014.67 1014.71 1014.67 1014.56 1014.37 1014.13 1013.83 1013.48 1013.08 1012.64 1012.18 1011.72 1011.28 1010.91 1010.64 1010.48 1010.45 1010.57 1010.83 1011.20 1011.67 1012.19 1012.72 1013.25 1013.73 1014.15 1014.48
1011.05 1011.13 1011.16 1011.18 1011.21 1011.29 1011.44 1011.68 1011.99 1012.38 1012.82 1013.27 1013.70 1014.08 1014.38 1014.60 1014.73 1014.77 1014.72 1014.59 1014.40 1014.14 1013.83 1013.47 1013.06 1012.61 1012.12 1011.64 1011.17 1010.75 1010.40 1010.17 1010.05 1010.08 1010.24 1010.52 1010.90 1011.35 1011.85 1012.35 1012.84 1013.29 1013.69
1011.35 1011.39 1011.39 1011.37 1011.38 1011.43 1011.56 1011.78 1012.09 1012.47 1012.91 1013.36 1013.79 1014.17 1014.48 1014.69 1014.82 1014.85 1014.79 1014.66 1014.45 1014.19 1013.88 1013.51 1013.09 1012.64 1012.16 1011.66 1011.18 1010.74 1010.36 1010.07 1009.89 1009.83 1009.90 1010.08 1010.36 1010.71 1011.11 1011.54 1011.97 1012.39 1012.78
1011.66 1011.69 1011.68 1011.66 1011.66 1011.70 1011.83 1012.03 1012.32 1012.69 1013.10 1013.53 1013.94 1014.30 1014.60 1014.80 1014.91 1014.94 1014.87 1014.73 1014.52 1014.25 1013.93 1013.56 1013.15 1012.71 1012.24 1011.76 1011.28 1010.85 1010.46 1010.15 1009.93 1009.81 1009.79 1009.87 1010.03 1010.26 1010.54 1010.85 1011.17 1011.50 1011.82
1011.92 1011.97 1011.99 1012.00 1012.02 1012.08 1012.21 1012.40 1012.68 1013.01 1013.38 1013.77 1014.14 1014.47 1014.73 1014.91 1015.00 1015.01 1014.94 1014.79 1014.57 1014.30 1013.98 1013.62 1013.22 1012.79 1012.34 1011.89 1011.45 1011.04 1010.68 1010.37 1010.13 1009.97 1009.88 1009.87 1009.91 1010.01 1010.14 1010.30 1010.47 1010.67 1010.87
1012.07 1012.19 1012.27 1012.34 1012.41 1012.51 1012.65 1012.85 1013.10 1013.39 1013.71 1014.04 1014.35 1014.63 1014.84 1014.99 1015.06 1015.05 1014.97 1014.81 1014.60 1014.32 1014.01 1013.65 1013.27 1012.87 1012.45 1012.04 1011.65 1011.28 1010.95 1010.67 1010.44 1010.25 1010.12 1010.03 1009.96 1009.93 1009.92 1009.92 1009.94 1009.98 1010.05
1012.09 1012.30 1012.48 1012.63 1012.78 1012.94 1013.11 1013.31 1013.53 1013.78 1014.04 1014.30 1014.55 1014.76 1014.92 1015.03 1015.07 1015.04 1014.95 1014.80 1014.58 1014.32 1014.01 1013.67 1013.31 1012.94 1012.57 1012.20 1011.86 1011.55 1011.27 1011.02 1010.81 1010.62 1010.46 1010.31 1010.16 1010.02 1009.88 1009.74 1009.62 1009.52 1009.47
1011.99 1012.30 1012.58 1012.84 1013.08 1013.30 1013.51 1013.71 1013.91 1014.12 1014.31 1014.50 1014.67 1014.82 1014.92 1014.99 1015.01 1014.97 1014.88 1014.73 1014.52 1014.28 1014.00 1013.68 1013.35 1013.02 1012.69 1012.38 1012.09 1011.83 1011.60 1011.40 1011.22 1011.05 1010.87 1010.69 1010.49 1010.27 1010.04 1009.79 1009.56 1009.35 1009.19
1011.78 1012.20 1012.59 1012.95 1013.27 1013.55 1013.80 1014.00 1014.18 1014.34 1014.48 1014.59 1014.70 1014.78 1014.84 1014.87 1014.87 1014.83 1014.74 1014.61 1014.44 1014.23 1013.98 1013.70 1013.41 1013.12 1012.84 1012.58 1012.35 1012.15 1011.97 1011.81 1011.66 1011.51 1011.34 1011.15 1010.92 1010.66 1010.37 1010.07 1009.77 1009.49 1009.26
1011.53 1012.04 1012.52 1012.96 1013.35 1013.67 1013.94 1014.14 1014.30 1014.41 1014.49 1014.55 1014.59 1014.63 1014.65 1014.66 1014.65 1014.62 1014.56 1014.47 1014.33 1014.16 1013.96 1013.74 1013.50 1013.26 1013.03 1012.82 1012.64 1012.48 1012.35 1012.24 1012.12 1012.00 1011.84 1011.66 1011.43 1011.16 1010.86 1010.54 1010.22 1009.92 1009.66
1011.28 1011.84 1012.38 1012.87 1013.29 1013.64 1013.91 1014.11 1014.24 1014.31 1014.35 1014.36 1014.36 1014.36 1014.36 1014.36 1014.36 1014.36 1014.33 1014.28 1014.20 1014.09 1013.95 1013.78 1013.60 1013.42 1013.25 1013.09 1012.96 1012.84 1012.75 1012.67 1012.59 1012.49 1012.36 1012.19 1011.98 1011.73 1011.45 1011.15 1010.85 1010.57 1010.33
1011.08 1011.65 1012.20 1012.70 1013.13 1013.48 1013.73 1013.91 1014.01 1014.05 1014.05 1014.03 1014.01 1013.99 1013.99 1014.00 1014.02 1014.05 1014.07 1014.07 1014.05 1014.00 1013.92 1013.82 1013.71 1013.58 1013.46 1013.36 1013.27 1013.20 1013.14 1013.09 1013.03 1012.96 1012.86 1012.72 1012.54 1012.32 1012.08 1011.82 1011.57 1011.34 1011.14
1010.95 1011.49 1012.01 1012.48 1012.88 1013.20 1013.43 1013.57 1013.64 1013.66 1013.64 1013.61 1013.57 1013.55 1013.56 1013.59 1013.64 1013.70 1013.76 1013.82 1013.86 1013.87 1013.86 1013.82 1013.77 1013.70 1013.64 1013.58 1013.54 1013.51 1013.48 1013.46 1013.43 1013.38 1013.30 1013.19 1013.05 1012.88 1012.69 1012.49 1012.30 1012.12 1011.99
1010.88 1011.36 1011.82 1012.23 1012.58 1012.85 1013.04 1013.16 1013.20 1013.21 1013.18 1013.14 1013.11 1013.09 1013.11 1013.16 1013.23 1013.32 1013.43 1013.52 1013.61 1013.67 1013.71 1013.73 1013.74 1013.73 1013.72 1013.71 1013.71 1013.72 1013.73 1013.73 1013.73 1013.71 1013.66 1013.59 1013.49 1013.36 1013.22 1013.08 1012.95 1012.84 1012.76
1010.85 1011.25 1011.63 1011.97 1012.26 1012.48 1012.63 1012.72 1012.75 1012.75 1012.72 1012.68 1012.66 1012.65 1012.68 1012.74 1012.83 1012.94 1013.05 1013.17 1013.28 1013.38 1013.46 1013.52 1013.57 1013.62 1013.66 1013.70 1013.75 1013.80 1013.84 1013.89 1013.92 1013.93 1013.92 1013.88 1013.82 1013.74 1013.65 1013.56 1013.48 1013.42 1013.39
1010.83 1011.15 1011.46 1011.73 1011.95 1012.13 1012.25 1012.32 1012.34 1012.34 1012.31 1012.28 1012.27 1012.27 1012.30 1012.36 1012.44 1012.54 1012.66 1012.77 1012.89 1012.99 1013.09 1013.18 1013.26 1013.34 1013.43 1013.52 1013.61 1013.72 1013.81 1013.91 1013.98 1014.04 1014.08 1014.08 1014.06 1014.03 1013.98 1013.93 1013.89 1013.87 1013.86
1010.79 1011.04 1011.28 1011.50 1011.68 1011.82 1011.92 1011.98 1012.01 1012.00 1011.99 1011.97 1011.96 1011.96 1011.98 1012.02 1012.08 1012.16 1012.24 1012.33 1012.42 1012.51 1012.60 1012.69 1012.79 1012.90 1013.03 1013.16 1013.31 1013.47 1013.63 1013.78 1013.92 1014.03 1014.12 1014.18 1014.20 1014.21 1014.20 1014.19 1014.17 1014.17 1014.18
Thickness
5657 5654 5651 5648 5646 5643 5640 5638 5635 5634 5632 5631 5629 5628 5627 5626 5625 5623 5622 5621 5621 5621 5621 5621 5621 5621 5621 5621 5620 5620 5618 5617 5614 5614 5617 5619 5622 5624 5626 5628 5630 5631 5632
5654 5650 5647 5644 5641 5638 5635 5633 5631 5629 5627 5626 5624 5623 5622 5621 5619 5617 5616 5615 5615 5614 5614 5615 5614 5615 5614 5614 5613 5612 5612 5611 5610 5608 5609 5611 5614 5616 5619 5620 5622 5623 5624
5649 5645 5642 5638 5636 5633 5630 5628 5626 5623 5621 5620 5618 5617 5616 5615 5613 5612 5611 5610 5609 5608 5608 5608 5608 5608 5607 5607 5607 5606 5605 5606 5604 5603 5603 5604 5606 5608 5610 5612 5614 5615 5617
5644 5640 5637 5634 5631 5629 5626 5623 5621 5618 5616 5614 5612 5611 5610 5609 5608 5607 5606 5604 5603 5603 5603 5603 5602 5602 5601 5601 5601 5600 5599 5598 5596 5596 5595 5596 5597 5599 5600 5601 5603 5605 5607
5638 5634 5632 5629 5627 5624 5620 5618 5615 5613 5611 5608 5606 5605 5604 5603 5602 5601 5600 5599 5597 5597 5596 5597 5597 5598 5597 5596 5596 5594 5593 5591 5589 5588 5587 5587 5588 5589 5590 5592 5593 5595 5597
5632 5629 5627 5623 5621 5618 5615 5612 5609 5607 5604 5602 5600 5598 5597 5598 5597 5596 5595 5593 5591 5590 5589 5590 5591 5591 5591 5591 5591 5590 5588 5586 5583 5581 5580 5579 5581 5582 5582 5584 5583 5584 5586
5626 5623 5620 5617 5614 5611 5609 5606 5602 5600 5597 5595 5593 5592 5591 5591 5592 5591 5590 5587 5585 5583 5582 5582 5583 5584 5583 5583 5583 5582 5581 5581 5580 5577 5575 5574 5575 5576 5576 5575 5575 5575 5577
5620 5617 5614 5610 5607 5605 5602 5599 5596 5593 5591 5589 5587 5586 5585 5585 5586 5585 5583 5580 5578 5576 5575 5575 5574 5574 5576 5575 5574 5572 5572 5572 5572 5571 5570 5570 5570 5570 5570 5570 5569 5569 5569
5613 5610 5607 5604 5601 5597 5594 5592 5589 5587 5584 5582 5581 5579 5577 5578 5579 5578 5576 5572 5570 5569 5568 5567 5567 5567 5568 5567 5565 5563 5562 5562 5563 5563 5563 5563 5563 5563 5562 5560 5559 5559 5559
5606 5604 5601 5599 5595 5592 5589 5586 5583 5580 5578 5576 5574 5572 5571 5570 5572 5571 5569 5565 5562 5561 5560 5559 5560 5560 5560 5559 5556 5554 5552 5552 5553 5553 5553 5553 5553 5553 5552 5552 5552 5551 5551
5600 5597 5594 5591 5589 5586 5583 5580 5576 5574 5571 5568 5566 5564 5563 5563 5564 5564 5562 5558 5555 5553 5551 5550 5551 5552 5552 5550 5549 5547 5546 5546 5544 5543 5542 5542 5542 5542 5542 5543 5544 5545 5545
5592 5588 5586 5583 5581 5579 5575 5572 5569 5566 5563 5560 5558 5556 5555 5555 5555 5555 5554 5552 5550 5546 5544 5543 5543 5544 5543 5542 5541 5540 5539 5537 5534 5532 5531 5531 5531 5532 5533 5535 5536 5537 5539
5583 5579 5576 5574 5572 5570 5567 5564 5561 5558 5555 5552 5550 5548 5547 5546 5546 5546 5546 5544 5542 5539 5537 5536 5535 5535 5534 5532 5532 5531 5529 5526 5524 5522 5521 5521 5522 5523 5524 5525 5527 5529 5530
5573 5570 5567 5565 5562 5560 5558 5556 5553 5550 5547 5545 5542 5541 5539 5538 5537 5537 5536 5535 5534 5531 5529 5528 5527 5525 5523 5522 5521 5520 5518 5517 5515 5514 5513 5512 5512 5513 5514 5516 5517 5519 5520
5564 5561 5558 5555 5553 5550 5548 5547 5545 5543 5542 5539 5537 5535 5532 5531 5532 5531 5529 5527 5525 5523 5521 5518 5515 5513 5511 5510 5509 5508 5507 5507 5506 5505 5504 5503 5503 5504 5505 5507 5507 5509 5509
5556 5552 5549 5546 5543 5541 5539 5537 5536 5536 5536 5534 5532 5530 5528 5527 5526 5524 5522 5521 5519 5516 5512 5509 5506 5504 5502 5500 5498 5497 5497 5496 5496 5495 5494 5494 5495 5495 5496 5497 5498 5499 5500
5548 5544 5540 5537 5534 5532 5530 5528 5526 5526 5526 5525 5523 5522 5520 5519 5517 5516 5514 5512 5510 5507 5503 5500 5498 5495 5493 5491 5489 5488 5488 5487 5486 5486 5485 5485 5486 5486 5487 5487 5488 5489 5490
5540 5538 5534 5530 5527 5524 5522 5520 5518 5516 5514 5513 5513 5513 5512 5510 5508 5507 5505 5502 5497 5495 5493 5491 5489 5487 5484 5482 5481 5480 5479 5478 5478 5477 5476 5476 5476 5477 5477 5477 5477 5479 5480
5532 5529 5526 5523 5520 5517 5514 5512 5509 5508 5506 5504 5503 5502 5502 5501 5499 5497 5494 5490 5487 5485 5483 5481 5480 5478 5476 5474 5472 5471 5471 5470 5469 5468 5467 5467 5467 5467 5467 5467 5467 5469 5470
5525 5524 5521 5516 5512 5509 5506 5503 5501 5499 5498 5496 5494 5493 5492 5490 5487 5485 5483 5481 5478 5476 5475 5473 5471 5470 5468 5466 5464 5463 5462 5461 5460 5459 5458 5458 5458 5458 5458 5458 5458 5458 5459
5518 5516 5515 5509 5505 5503 5500 5497 5494 5492 5491 5489 5488 5487 5485 5482 5479 5476 5475 5473 5471 5469 5467 5466 5464 5462 5461 5459 5457 5455 5454 5453 5452 5451 5450 5449 5449 5448 5448 5448 5448 5449 5450
5512 5509 5505 5502 5499 5496 5493 5491 5488 5486 5484 5482 5480 5478 5477 5474 5471 5469 5467 5466 5464 5462 5460 5458 5457 5455 5454 5452 5451 5449 5448 5447 5445 5443 5442 5441 5440 5440 5440 5440 5440 5441 5442
5504 5502 5498 5495 5492 5490 5487 5484 5481 5479 5477 5475 5473 5470 5468 5465 5463 5462 5460 5459 5457 5455 5453 5451 5449 5448 5447 5446 5445 5444 5443 5441 5439 5437 5435 5434 5433 5433 5433 5433 5433 5433 5434
5497 5495 5492 5489 5486 5483 5480 5477 5475 5474 5471 5468 5466 5464 5461 5459 5457 5455 5454 5452 5450 5448 5446 5445 5443 5442 5441 5440 5439 5438 5437 5436 5434 5432 5430 5428 5427 5426 5426 5426 5426 5427 5428
5490 5487 5484 5482 5479 5476 5473 5471 5469 5467 5464 5462 5460 5457 5454 5451 5449 5448 5446 5445 5443 5441 5440 5438 5437 5436 5435 5435 5434 5433 5431 5430 5428 5426 5424 5423 5421 5420 5420 5419 5419 5419 5420
5482 5480 5477 5474 5472 5469 5466 5464 5462 5460 5457 5455 5452 5449 5447 5444 5442 5441 5439 5438 5436 5435 5434 5432 5432 5431 5430 5429 5428 5427 5426 5424 5422 5421 5419 5418 5416 5415 5414 5413 5413 5413 5413